F1IRU-13 Weather Reports


time (UTC)temp
F
wind
direction
speed
knots
gust
knots
rain 1hr
in
rain 24hr
in
rain mn
in
humidity
%
barometer
mb
20260507140536 68 141 1.7 5.2 0.01 0.02 0.02 55 1013.2
20260507140035 69 131 0.9 5.2 0.01 0.02 0.02 52 1013.3
20260507135525 69 132 0.9 5.2 0.01 0.02 0.02 54 1013.5
20260507135025 69 155 0.9 6.1 0.00 0.02 0.01 55 1013.5
20260507134526 69 133 0.9 6.1 0.00 0.02 0.01 55 1013.3
20260507134027 68 125 0.9 3.5 0.00 0.02 0.01 55 1013.3
20260507133529 67 126 0.9 4.3 0.00 0.02 0.01 55 1013.5
20260507133522 67 123 0.9 4.3 0.00 0.02 0.01 58 1013.4
20260507132523 67 136 0.9 3.5 0.00 0.02 0.01 56 1013.5
20260507132024 67 142 0.9 8.7 0.00 0.02 0.01 55 1013.5
20260507131512 67 134 0.9 8.7 0.00 0.02 0.01 55 1013.6
20260507131015 68 107 0.9 5.2 0.00 0.02 0.01 55 1013.5
20260507130513 68 126 0.9 5.2 0.00 0.02 0.01 54 1013.8
20260507130001 68 117 0.0 5.2 0.00 0.02 0.01 58 1013.8
20260507125454 67 119 0.9 2.6 0.00 0.02 0.01 55 1013.8
20260507124940 67 118 0.9 2.6 0.00 0.02 0.01 54 1013.9
20260507124421 68 146 0.9 3.5 0.00 0.02 0.01 56 1013.9
20260507123919 68 128 0.9 6.1 0.00 0.02 0.01 56 1014.0
20260507123418 68 138 0.9 6.1 0.00 0.02 0.01 57 1013.9
20260507122916 67 193 0.9 6.1 0.00 0.02 0.01 57 1013.9
20260507122419 68 133 0.9 6.1 0.00 0.02 0.01 54 1013.9
20260507121911 68 131 0.0 3.5 0.00 0.02 0.01 57 1014.0
20260507121411 67 119 0.9 5.2 0.00 0.02 0.01 59 1014.0
20260507120905 66 128 1.7 6.1 0.00 0.02 0.01 57 1014.1
20260507120405 66 118 1.7 7.0 0.00 0.02 0.01 58 1014.1
20260507115905 66 123 1.7 7.8 0.00 0.02 0.01 60 1014.0
20260507115358 66 130 2.6 7.8 0.00 0.02 0.01 55 1014.1
20260507114855 67 130 2.6 7.8 0.00 0.02 0.01 60 1014.1
20260507114353 67 134 3.5 11.3 0.00 0.02 0.01 59 1014.1
20260507114123 66 136 2.6 11.3 0.00 0.02 0.01 58 1014.1
20260507113353 66 117 1.7 6.1 0.00 0.02 0.01 60 1014.1
20260507113114 66 128 1.7 6.1 0.00 0.02 0.01 58 1014.2
20260507112343 67 121 2.6 8.7 0.00 0.02 0.01 60 1014.4
20260507111841 67 130 1.7 8.7 0.00 0.02 0.01 59 1014.3
20260507111341 67 128 0.9 8.7 0.00 0.02 0.01 59 1014.4
20260507110841 66 125 0.9 8.7 0.00 0.02 0.01 62 1014.4
20260507110333 65 101 0.9 5.2 0.00 0.02 0.01 63 1014.4
20260507105826 65 81 0.9 4.3 0.00 0.02 0.01 58 1014.4
20260507105553 65 127 0.9 7.0 0.00 0.02 0.01 61 1014.6
20260507104823 65 132 1.7 7.0 0.00 0.02 0.01 61 1014.5
20260507104313 65 132 0.9 6.1 0.00 0.02 0.01 64 1014.6
20260507103813 65 128 0.9 6.1 0.00 0.02 0.01 67 1014.5
20260507103313 65 134 1.7 6.1 0.00 0.02 0.01 63 1014.5
20260507102807 64 136 1.7 6.1 0.00 0.02 0.01 62 1014.6
20260507102243 64 121 1.7 5.2 0.00 0.02 0.01 64 1014.6
20260507101741 64 146 0.9 4.3 0.00 0.02 0.01 66 1014.6
20260507101241 64 134 0.9 5.2 0.00 0.02 0.01 67 1014.6
20260507100735 63 104 0.9 5.2 0.00 0.02 0.01 66 1014.6
20260507100227 63 113 0.9 6.1 0.00 0.02 0.01 68 1014.6
20260507095719 63 114 0.9 6.1 0.00 0.02 0.01 67 1014.6
20260507095221 63 144 0.0 5.2 0.00 0.02 0.01 70 1014.7
20260507094715 62 144 0.0 3.5 0.00 0.02 0.01 71 1014.7
20260507094438 62 139 0.9 5.2 0.00 0.02 0.01 71 1014.7
20260507093645 62 132 0.9 6.1 0.00 0.02 0.01 70 1014.8
20260507093354 61 128 1.7 8.7 0.00 0.02 0.01 70 1014.7
20260507092614 61 130 1.7 8.7 0.00 0.02 0.01 69 1014.7
20260507092113 61 133 0.9 8.7 0.00 0.02 0.01 72 1014.8
20260507091613 61 134 0.9 7.8 0.00 0.02 0.01 73 1014.6
20260507091105 60 123 0.9 6.1 0.00 0.02 0.01 73 1014.8
20260507090557 60 131 0.9 5.2 0.00 0.02 0.01 73 1014.6
20260507090051 60 179 0.9 5.2 0.00 0.02 0.01 73 1014.6
20260507085552 60 132 0.0 3.5 0.00 0.02 0.01 74 1014.6
20260507085046 60 132 0.9 5.2 0.00 0.02 0.01 74 1014.8
20260507084537 60 130 0.9 5.2 0.00 0.02 0.01 75 1014.6
20260507084303 59 170 0.0 3.5 0.00 0.02 0.01 75 1014.6
20260507083531 59 182 0.9 7.8 0.00 0.02 0.01 75 1014.5
20260507083243 59 127 0.9 7.8 0.00 0.02 0.01 75 1014.5
20260507082510 59 127 0.9 5.2 0.00 0.02 0.01 77 1014.5
20260507082009 58 130 0.9 4.3 0.00 0.02 0.01 78 1014.4
20260507081503 58 130 0.9 6.1 0.00 0.02 0.01 79 1014.4
20260507080949 58 127 1.7 6.1 0.00 0.02 0.01 79 1014.4
20260507080449 57 121 1.7 6.1 0.00 0.02 0.01 80 1014.4
20260507080221 57 120 1.7 7.0 0.00 0.02 0.01 79 1014.4
20260507075449 57 120 0.9 7.0 0.00 0.02 0.01 80 1014.4
20260507074949 57 128 0.9 5.2 0.00 0.02 0.01 82 1014.3
20260507074441 56 123 0.0 5.2 0.00 0.02 0.01 82 1014.3
20260507073919 56 124 0.9 5.2 0.00 0.02 0.01 83 1014.2
20260507073644 56 124 1.7 5.2 0.00 0.02 0.01 83 1014.3
20260507072859 55 124 0.9 5.2 0.00 0.02 0.01 86 1014.2
20260507072359 55 116 0.9 4.3 0.00 0.02 0.01 88 1014.2
20260507071857 55 116 0.9 4.3 0.00 0.02 0.01 89 1014.1
20260507071356 54 115 0.0 3.5 0.00 0.02 0.01 90 1014.0
20260507070855 54 115 0.9 4.3 0.00 0.02 0.01 91 1014.1
20260507070321 53 115 0.9 4.3 0.00 0.02 0.01 92 1014.1
20260507065819 53 115 0.9 3.5 0.00 0.02 0.01 92 1014.1
20260507065547 53 115 0.0 3.5 0.00 0.02 0.01 93 1014.0
20260507064813 53 115 0.9 4.3 0.00 0.02 0.01 93 1014.1
20260507064806 52 115 0.9 4.3 0.00 0.02 0.01 94 1014.0
20260507063739 52 107 0.0 2.6 0.00 0.02 0.01 94 1014.0
20260507063508 52 73 0.0 0.0 0.00 0.02 0.01 94 1014.0
20260507062736 52 73 0.0 0.0 0.00 0.02 0.01 95 1014.0
20260507062504 51 73 0.0 0.0 0.00 0.02 0.01 94 1013.9
20260507061720 51 73 0.0 0.0 0.00 0.02 0.01 94 1013.9
20260507061448 51 73 0.0 0.0 0.01 0.02 0.01 94 1013.9
20260507060717 50 73 0.0 0.0 0.01 0.02 0.01 94 1014.0
20260507060447 50 73 0.0 0.0 0.01 0.02 0.01 94 1013.9
20260507055719 50 73 0.0 0.0 0.01 0.02 0.01 94 1013.9
20260507055213 49 73 0.0 0.0 0.01 0.02 0.01 94 1013.8
20260507054937 49 73 0.0 0.0 0.01 0.02 0.01 94 1013.8
20260507054129 49 73 0.0 0.0 0.01 0.02 0.01 94 1013.7
20260507053619 49 73 0.0 0.0 0.01 0.02 0.01 94 1013.7
20260507053119 49 73 0.0 0.0 0.01 0.02 0.01 93 1013.8
20260507052621 49 73 0.0 0.0 0.01 0.02 0.01 93 1013.7
20260507052114 49 73 0.0 0.0 0.01 0.02 0.01 93 1013.6
20260507051611 49 73 0.0 0.0 0.00 0.02 0.01 93 1013.5
20260507051059 49 73 0.0 0.0 0.00 0.02 0.00 93 1013.5
20260507050549 49 73 0.0 0.0 0.00 0.02 0.00 93 1013.4
20260507050041 49 73 0.0 0.0 0.00 0.02 0.00 93 1013.5
20260507045529 49 73 0.0 0.0 0.00 0.02 0.00 92 1013.5
20260507045028 50 73 0.0 0.0 0.00 0.02 0.00 92 1013.4
20260507044517 50 73 0.0 0.0 0.00 0.02 0.00 92 1013.4
20260507044009 50 73 0.0 0.0 0.00 0.02 0.00 92 1013.4
20260507043509 50 73 0.0 0.0 0.00 0.02 0.00 93 1013.3
20260507043218 50 73 0.0 0.0 0.00 0.02 0.00 93 1013.3
20260507042414 50 73 0.0 0.0 0.00 0.02 0.00 93 1013.2
20260507042112 50 73 0.0 0.0 0.00 0.02 0.00 93 1013.3
20260507041320 50 73 0.0 0.0 0.00 0.02 0.00 93 1013.3
20260507040811 50 73 0.0 0.0 0.00 0.02 0.00 93 1013.4
20260507040249 50 73 0.0 0.0 0.00 0.02 0.00 93 1013.4
20260507035719 50 73 0.0 0.0 0.00 0.02 0.00 93 1013.3
20260507035219 50 73 0.0 0.0 0.00 0.02 0.00 93 1013.3
20260507034657 50 73 0.0 0.0 0.00 0.02 0.00 93 1013.2
20260507034121 50 73 0.0 0.0 0.00 0.02 0.00 93 1013.2
20260507033619 50 73 0.0 0.0 0.00 0.02 0.00 92 1013.3
20260507033119 50 73 0.0 0.0 0.00 0.02 0.00 92 1013.2
20260507032612 50 73 0.0 0.0 0.00 0.02 0.00 92 1013.2
20260507032112 51 73 0.0 0.0 0.00 0.02 0.00 92 1013.2
20260507031609 51 73 0.0 0.0 0.00 0.02 0.00 92 1013.2
20260507031027 51 73 0.0 0.0 0.00 0.02 0.00 92 1013.2
20260507030524 51 73 0.0 0.0 0.00 0.02 0.00 92 1013.2
20260507030519 51 73 0.0 0.0 0.00 0.02 0.00 92 1013.1
20260507025511 51 73 0.0 0.0 0.00 0.02 0.00 92 1013.2
20260507025001 51 73 0.0 0.0 0.00 0.02 0.00 92 1013.1
20260507024447 51 73 0.0 0.0 0.00 0.02 0.00 92 1013.1
20260507023933 51 73 0.0 0.0 0.00 0.02 0.00 92 1013.1
20260507023424 52 73 0.0 0.0 0.00 0.02 0.00 92 1013.2
20260507022923 52 73 0.0 0.0 0.00 0.02 0.00 92 1013.2
20260507022415 52 73 0.0 0.0 0.00 0.02 0.00 92 1013.2
20260507021908 52 73 0.0 0.0 0.00 0.02 0.00 92 1013.2
20260507021353 52 73 0.0 0.0 0.00 0.02 0.00 92 1013.2
20260507020851 52 73 0.0 0.0 0.00 0.02 0.00 92 1013.1
20260507020620 52 73 0.0 0.0 0.00 0.02 0.00 92 1013.1
20260507015835 52 73 0.0 0.0 0.00 0.02 0.00 92 1013.2
20260507015333 52 73 0.0 0.0 0.00 0.02 0.00 92 1013.2
20260507014833 52 73 0.0 0.0 0.00 0.02 0.00 92 1013.0
20260507014322 52 73 0.0 0.0 0.00 0.02 0.00 92 1013.1
20260507013814 52 73 0.0 0.0 0.00 0.02 0.00 92 1013.1
20260507013309 52 73 0.0 0.0 0.00 0.02 0.00 92 1013.1
20260507013005 52 73 0.0 0.0 0.00 0.02 0.00 92 1013.1
20260507012451 52 73 0.0 0.0 0.00 0.02 0.00 91 1013.2
20260507011713 52 73 0.0 0.0 0.00 0.02 0.00 92 1013.2
20260507011432 52 73 0.0 0.0 0.00 0.02 0.00 91 1013.1
20260507010931 52 73 0.0 0.0 0.00 0.02 0.00 91 1013.1
20260507010351 52 73 0.0 0.0 0.00 0.02 0.00 91 1013.3
20260507005605 52 73 0.0 0.0 0.00 0.02 0.00 91 1013.1
20260507005104 53 73 0.0 0.0 0.00 0.02 0.00 91 1013.1
20260507004548 53 73 0.0 0.0 0.00 0.02 0.00 91 1013.2
20260507004021 53 73 0.0 0.0 0.00 0.02 0.00 91 1013.2
20260507003515 53 73 0.0 0.0 0.00 0.02 0.00 91 1013.3
20260507002956 53 73 0.0 0.0 0.00 0.02 0.00 91 1013.3
20260507002652 53 73 0.0 0.0 0.00 0.02 0.00 91 1013.4
20260507002152 53 73 0.0 0.0 0.00 0.02 0.00 91 1013.2
20260507001646 53 73 0.0 0.0 0.00 0.02 0.00 91 1013.4
20260507000915 53 73 0.0 0.0 0.00 0.02 0.00 91 1013.5
20260507000416 53 73 0.0 0.0 0.00 0.02 0.00 91 1013.3
20260506235907 53 73 0.0 0.0 0.00 0.02 0.00 91 1013.3
20260506235315 53 73 0.0 0.0 0.00 0.02 0.00 91 1013.4
20260506234755 53 73 0.0 0.0 0.00 0.02 0.00 91 1013.4
20260506234250 53 73 0.0 0.0 0.00 0.02 0.00 91 1013.4
20260506233740 53 73 0.0 0.0 0.00 0.02 0.00 91 1013.4
20260506233231 53 73 0.0 0.0 0.00 0.02 0.00 91 1013.4
20260506232719 53 73 0.0 0.0 0.00 0.02 0.00 91 1013.5
20260506232220 53 73 0.0 0.0 0.00 0.02 0.00 91 1013.3
20260506231721 53 73 0.0 0.0 0.00 0.02 0.00 90 1013.3
20260506231219 53 73 0.0 0.0 0.00 0.02 0.00 90 1013.3
20260506230719 53 73 0.0 0.0 0.00 0.02 0.00 90 1013.3
20260506230213 53 73 0.0 0.0 0.00 0.02 0.00 90 1013.2
20260506225704 53 73 0.0 0.0 0.00 0.02 0.00 90 1013.4
20260506225150 53 73 0.0 0.0 0.00 0.02 0.00 90 1013.3
20260506224643 53 73 0.0 0.0 0.00 0.02 0.00 90 1013.4
20260506224119 54 73 0.0 0.0 0.00 0.02 0.00 90 1013.4
20260506224113 54 73 0.0 0.0 0.00 0.02 0.00 90 1013.3
20260506223104 54 73 0.0 0.0 0.00 0.02 0.00 90 1013.3
20260506222543 54 73 0.0 0.0 0.00 0.02 0.00 90 1013.3
20260506222312 54 73 0.0 0.0 0.00 0.02 0.00 90 1013.4
20260506221523 54 73 0.0 0.0 0.00 0.02 0.00 90 1013.3
20260506221015 54 73 0.0 0.0 0.00 0.02 0.00 90 1013.2
20260506220509 54 73 0.0 0.0 0.00 0.02 0.00 90 1013.2
20260506215933 54 73 0.0 0.0 0.00 0.02 0.02 89 1013.2
20260506215420 54 73 0.0 0.0 0.00 0.02 0.02 89 1013.2
20260506214916 54 73 0.0 0.0 0.00 0.02 0.02 89 1013.3
20260506214411 54 73 0.0 0.0 0.01 0.02 0.02 89 1013.3
20260506213901 54 73 0.0 0.0 0.01 0.02 0.02 89 1013.1
20260506213321 54 73 0.0 0.0 0.01 0.02 0.02 89 1013.2
20260506212819 54 73 0.0 0.0 0.01 0.02 0.02 89 1013.1
20260506212319 54 73 0.0 0.0 0.01 0.02 0.02 88 1013.1
20260506212049 55 73 0.0 0.0 0.01 0.02 0.02 89 1013.1
20260506211317 54 73 0.0 0.0 0.01 0.02 0.02 88 1013.0
20260506210810 54 73 0.0 0.0 0.01 0.02 0.02 88 1013.0
20260506210217 55 73 0.0 0.0 0.01 0.02 0.02 88 1013.0
20260506205716 55 73 0.0 0.0 0.01 0.02 0.02 88 1013.0
20260506205219 55 73 0.0 0.0 0.01 0.02 0.02 88 1012.9
20260506204717 55 73 0.0 0.0 0.01 0.02 0.02 88 1013.0
20260506204215 55 73 0.0 0.0 0.00 0.02 0.02 87 1012.9
20260506203708 55 73 0.0 0.0 0.00 0.02 0.02 87 1012.8
20260506203703 55 73 0.0 0.0 0.00 0.02 0.02 87 1012.8
20260506202651 55 73 0.0 0.0 0.00 0.02 0.02 87 1012.8
20260506202139 55 73 0.0 0.0 0.00 0.02 0.02 87 1012.6
20260506201627 55 73 0.0 0.0 0.00 0.02 0.02 87 1012.7
20260506201359 55 73 0.0 0.0 0.00 0.02 0.02 86 1012.8
20260506200627 56 73 0.0 0.0 0.00 0.02 0.02 86 1012.6
20260506200127 56 73 0.0 0.0 0.00 0.02 0.02 87 1012.5
20260506195621 56 73 0.0 0.0 0.00 0.02 0.02 87 1012.5
20260506195113 56 73 0.0 0.0 0.00 0.02 0.02 87 1012.4
20260506194605 56 73 0.0 0.0 0.00 0.02 0.02 86 1012.3
20260506194101 56 73 0.0 0.0 0.00 0.02 0.02 86 1012.1
20260506193520 56 73 0.0 0.0 0.00 0.02 0.02 86 1012.1
20260506193019 56 73 0.0 0.0 0.00 0.02 0.02 86 1012.1
20260506192751 56 73 0.0 0.0 0.00 0.02 0.02 85 1012.0
20260506192020 56 73 0.0 0.0 0.00 0.02 0.02 85 1012.0
20260506191519 56 73 0.0 0.0 0.00 0.02 0.02 85 1012.0
20260506191244 56 73 0.0 0.0 0.00 0.02 0.02 84 1011.8
20260506190504 56 73 0.0 0.0 0.00 0.02 0.02 84 1011.7
20260506190215 56 73 0.0 0.0 0.00 0.02 0.02 84 1011.8
20260506185702 56 73 0.0 0.0 0.00 0.02 0.02 83 1011.8
20260506185151 57 73 0.0 0.0 0.00 0.02 0.02 83 1011.8
20260506184647 57 73 0.0 0.0 0.00 0.02 0.02 83 1011.7
20260506184146 57 73 0.0 0.0 0.00 0.02 0.02 83 1011.7
20260506183356 57 73 0.0 0.9 0.00 0.02 0.02 83 1011.4
20260506183350 57 73 0.0 0.0 0.00 0.02 0.02 83 1011.7
20260506182327 57 73 0.0 2.6 0.00 0.02 0.02 82 1011.5
20260506181828 57 73 0.0 1.7 0.00 0.02 0.02 82 1011.5
20260506181822 57 73 0.0 2.6 0.00 0.02 0.02 82 1011.4
20260506180817 57 73 0.0 3.5 0.00 0.02 0.02 81 1011.3
20260506180251 57 73 0.0 3.5 0.00 0.02 0.02 81 1011.2
20260506175721 57 73 0.0 3.5 0.00 0.02 0.02 81 1011.1
20260506175219 57 73 0.0 4.3 0.00 0.02 0.02 82 1011.2
20260506174719 57 73 0.0 4.3 0.00 0.02 0.02 81 1011.2
20260506174450 57 75 0.0 2.6 0.00 0.02 0.02 82 1011.1
20260506173715 57 75 0.0 2.6 0.00 0.02 0.02 82 1011.0
20260506173207 57 66 0.0 4.3 0.00 0.02 0.02 82 1011.1
20260506172659 57 67 0.0 3.5 0.00 0.02 0.02 82 1011.0
20260506172133 57 67 0.0 3.5 0.00 0.02 0.02 82 1011.1
20260506171615 57 67 0.0 4.3 0.00 0.02 0.02 82 1011.1
20260506171105 57 68 0.9 4.3 0.00 0.02 0.02 82 1011.0
20260506170559 57 64 0.9 4.3 0.00 0.02 0.02 81 1011.0
20260506170323 58 65 0.0 4.3 0.00 0.02 0.02 82 1011.0
20260506165543 58 49 0.9 5.2 0.00 0.02 0.02 81 1011.0
20260506165043 58 59 0.9 5.2 0.00 0.02 0.02 79 1010.9
20260506164541 58 66 0.9 3.5 0.00 0.02 0.02 80 1011.0
20260506164310 58 74 0.9 6.1 0.00 0.02 0.02 80 1010.9
20260506163539 58 70 0.9 6.1 0.00 0.02 0.02 80 1011.0
20260506163031 58 51 0.9 4.3 0.00 0.02 0.02 78 1010.9
20260506162802 58 118 1.7 5.2 0.00 0.02 0.02 79 1010.8
20260506162021 58 70 1.7 5.2 0.00 0.02 0.02 78 1010.7
20260506161521 58 57 1.7 6.1 0.00 0.02 0.02 80 1010.7
20260506161011 58 65 0.9 6.1 0.00 0.02 0.02 78 1010.9
20260506160511 59 87 0.9 5.2 0.00 0.02 0.02 78 1010.7
20260506160233 59 75 0.9 5.2 0.00 0.02 0.02 78 1010.7
20260506155503 59 101 0.9 6.1 0.00 0.02 0.02 78 1010.7
20260506154927 58 67 0.9 6.1 0.00 0.02 0.02 78 1010.7
20260506154419 58 112 0.9 6.1 0.00 0.02 0.02 81 1010.7
20260506153920 58 76 0.9 6.1 0.00 0.02 0.02 78 1010.6
20260506153419 58 71 0.9 5.2 0.00 0.03 0.02 80 1010.7
20260506152919 58 68 0.0 4.3 0.00 0.03 0.02 81 1010.7
20260506152420 58 128 0.0 3.5 0.00 0.03 0.02 83 1010.7
20260506151917 58 112 0.0 3.5 0.00 0.03 0.02 82 1010.8
20260506151418 58 65 0.0 4.3 0.00 0.03 0.02 82 1010.6
20260506150917 58 105 0.9 4.3 0.00 0.03 0.02 82 1010.6
20260506150412 57 90 0.9 3.5 0.00 0.03 0.02 82 1010.8
20260506145909 57 109 0.9 7.0 0.00 0.03 0.02 85 1010.7
20260506145409 57 121 0.9 8.7 0.00 0.03 0.02 84 1010.7
20260506144905 57 97 0.9 8.7 0.00 0.03 0.02 85 1010.7
20260506144400 57 71 0.9 4.3 0.00 0.03 0.02 86 1010.6
20260506143847 56 101 0.9 7.8 0.00 0.03 0.02 86 1010.6
20260506143340 56 82 1.7 9.6 0.00 0.03 0.02 85 1010.7
20260506142841 56 72 0.9 9.6 0.00 0.03 0.02 85 1010.7
20260506142325 56 67 1.7 8.7 0.00 0.03 0.02 86 1010.6
20260506141822 57 59 1.7 8.7 0.00 0.03 0.02 86 1010.5
20260506141317 57 71 0.0 5.2 0.00 0.03 0.02 89 1010.7
20260506140815 57 74 0.0 4.3 0.00 0.03 0.02 89 1010.5